Volver al catálogo

XIGUANG 1-02

ActivoCienciaSSO
NORAD 64092·PAYLOAD·🇨🇳 China
Este nombre de satélite aún no ha sido confirmado por fuentes oficiales.

Lanzado May 21, 2025 desde Jiuquan Satellite Launch Center

Loading…

Próximos Pases (próximas 24 horas)

TLE

ActualizadoSource: Space-Track

Época: Sep 14, 2026, 15:46 UTC

1 64092U 25108F   26257.65763611  .00015319  00000-0  52026-3 0  9991
2 64092  97.4627 335.6771 0011047  51.8318 308.3916 15.30524919 73176

Sigue XIGUANG 1-02 en tiempo real con AllMySat

Download on the App Store